Location: Gu�tanj
(46.5431°N, 14.9692°E)
Time: 18:37:22
(UTC+00:00)

GP-B - Pass Details

Date: 03 March 2021
Orbit: 631 x 635 km, 89.8° (Epoch: 16 April)

Event Time Altitude Azimuth Distance (km) Brightness Sun altitude
Rises 17:44:27 0° 158° (SSE) 2,918 6.3 -10.3°
Reaches altitude 10° 17:46:45 10° 151° (SSE) 2,015 5.4 -10.7°
Maximum altitude 17:50:53 40° 81° (E) 935 3.5 -11.4°
Drops below altitude 10° 17:55:04 10° 12° (NNE) 2,032 5.6 -12.1°
Sets 17:57:23 0° 6° (N) 2,945 6.5 -12.5°
